Weather History for Wooster, OH

Change the Weather History Date:

Tuesday, May 21, 2013

  Actual Average Record
Temperature  
Mean Temperature 77 °F -  
Max Temperature 86 °F 67 °F 86 °F (2013)
Min Temperature 68 °F 46 °F 30 °F (2002)
Cooling Degree Days 12    
Growing Degree Days 27 (Base 50)    
Moisture  
Dew Point 63 °F    
Average Humidity 68    
Maximum Humidity 93    
Minimum Humidity 40    
Precipitation  
Precipitation 0.00 in - - ()
Sea Level Pressure  
Sea Level Pressure 29.86 in    
Wind  
Wind Speed 9 mph (SSW)    
Max Wind Speed 16 mph    
Max Gust Speed 24 mph    
Visibility 8 miles    
Events      
Averages and records for this station are not official NWS values.
T = Trace of Precipitation, MM = Missing Value Source: NWS Daily Summary

Daily Weather History Graph

Daily Weather History Graph

Search for Another Location

Airport:

Trip Planner

Search our weather history database for the weather conditions in past years. The results will help you decide how hot, cold, wet, or windy it might be!

Date:

Astronomy

May. 21, 2013 Rise Set
Actual Time 6:04 AM EDT 8:44 PM EDT
Civil Twilight 5:32 AM EDT 9:16 PM EDT
Nautical Twilight 4:53 AM EDT 9:56 PM EDT
Astronomical Twilight 4:08 AM EDT 10:41 PM EDT
Moon 4:55 PM EDT (5/21) 3:33 AM EDT (5/21)
Length of Visible Light 15h 43m
Length of Day
14h 39m
Waxing Gibbous, 84% of the Moon is Illuminated
May 21
Waxing Gibbous
May 25
Full
May 31
Last Quarter
Jun 8
New
Jun 16
First Quarter

Hourly Weather History & Observations

Time (EDT) Temp. Heat Index Dew Point Humidity Pressure Visibility Wind Dir Wind Speed Gust Speed Precip Events Conditions
12:56 AM 70.0 °F - 66.0 °F 87% 29.92 in 6.0 mi SSW 8.1 mph - N/A   Clear
1:56 AM 70.0 °F - 66.0 °F 87% 29.91 in 6.0 mi SSW 6.9 mph - N/A   Clear
2:56 AM 69.1 °F - 66.0 °F 90% 29.91 in 6.0 mi SSW 6.9 mph - N/A   Clear
3:56 AM 68.0 °F - 66.0 °F 93% 29.90 in 5.0 mi South 4.6 mph - N/A   Clear
4:56 AM 68.0 °F - 66.0 °F 93% 29.90 in 5.0 mi South 6.9 mph - N/A   Clear
5:56 AM 68.0 °F - 66.0 °F 93% 29.91 in 5.0 mi South 6.9 mph - N/A   Partly Cloudy
6:56 AM 69.1 °F - 66.0 °F 90% 29.91 in 5.0 mi SSW 5.8 mph - N/A   Clear
7:56 AM 71.1 °F - 66.0 °F 84% 29.90 in 7.0 mi South 8.1 mph - N/A   Clear
8:56 AM 72.0 °F - 66.0 °F 81% 29.90 in 8.0 mi SSW 12.7 mph - N/A   Clear
9:56 AM 73.0 °F - 66.0 °F 79% 29.90 in 7.0 mi South 12.7 mph - N/A   Clear
10:56 AM 77.0 °F - 66.9 °F 71% 29.90 in 9.0 mi SSW 15.0 mph 20.7 mph N/A   Partly Cloudy
11:56 AM 80.1 °F 81.5 °F 63.0 °F 56% 29.91 in 10.0 mi SW 12.7 mph 21.9 mph N/A   Clear
12:56 PM 82.9 °F 84.0 °F 63.0 °F 51% 29.88 in 10.0 mi SSW 15.0 mph 19.6 mph N/A   Partly Cloudy
1:56 PM 82.9 °F 84.4 °F 64.0 °F 53% 29.84 in 10.0 mi SSW 10.4 mph 24.2 mph N/A   Clear
2:56 PM 86.0 °F 86.8 °F 63.0 °F 46% 29.83 in 10.0 mi South 15.0 mph 23.0 mph N/A   Clear
3:56 PM 84.9 °F 85.4 °F 62.1 °F 46% 29.82 in 10.0 mi SSW 16.1 mph - N/A   Scattered Clouds
4:56 PM 84.9 °F 85.4 °F 62.1 °F 46% 29.81 in 10.0 mi SSW 16.1 mph 19.6 mph N/A   Partly Cloudy
5:56 PM 84.9 °F 84.2 °F 57.9 °F 40% 29.80 in 10.0 mi SW 13.8 mph 21.9 mph N/A   Scattered Clouds
6:56 PM 82.9 °F 83.2 °F 60.1 °F 46% 29.80 in 10.0 mi SSW 11.5 mph 20.7 mph N/A   Scattered Clouds
7:56 PM 81.0 °F 81.0 °F 57.0 °F 44% 29.80 in 10.0 mi SW 12.7 mph 18.4 mph N/A   Mostly Cloudy
8:56 PM 75.9 °F - 59.0 °F 56% 29.80 in 10.0 mi SSW 3.5 mph - N/A   Clear
9:56 PM 73.9 °F - 61.0 °F 64% 29.81 in 10.0 mi SW 4.6 mph - N/A   Clear
10:56 PM 73.0 °F - 61.0 °F 66% 29.83 in 10.0 mi SSW 6.9 mph - N/A   Clear
11:56 PM 72.0 °F - 61.0 °F 68% 29.83 in 10.0 mi SSW 6.9 mph - N/A   Clear